W4GAP Weather Reports


time (UTC)temp
C
wind
direction
speed
KPH
gust
KPH
rain 1hr
cm
rain 24hr
cm
rain mn
cm
humidity
%
barometer
mb
20260506002126 22 295 0.0 0.0 0.00 0.00 0.00 48 1010.3
20260506001622 22 295 0.0 0.0 0.00 0.00 0.00 48 1010.3
20260506001120 22 294 0.0 0.0 0.00 0.00 0.00 48 1010.2
20260506000617 22 295 0.0 0.0 0.00 0.00 0.00 48 1010.1
20260506000114 23 296 0.0 0.0 0.00 0.00 0.00 47 1010.5
20260505235612 23 296 0.0 0.0 0.00 0.00 0.00 47 1010.5
20260505235109 23 295 0.0 0.0 0.00 0.00 0.00 46 1010.6
20260505234605 23 295 0.0 0.0 0.00 0.00 0.00 45 1010.6
20260505234102 23 295 0.0 0.0 0.00 0.00 0.00 45 1010.3
20260505233600 23 276 0.0 0.0 0.00 0.00 0.00 45 1010.3
20260505233057 23 286 0.0 3.2 0.00 0.00 0.00 46 1010.3
20260505232555 24 312 0.0 0.0 0.00 0.00 0.00 44 1010.5
20260505232052 24 292 0.0 1.6 0.00 0.00 0.00 43 1010.2
20260505231548 24 302 0.0 3.2 0.00 0.00 0.00 42 1010.2
20260505231048 24 297 0.0 3.2 0.00 0.00 0.00 42 1010.1
20260505230544 24 289 0.0 1.6 0.00 0.00 0.00 43 1010.5
20260505230041 24 297 0.0 1.6 0.00 0.00 0.00 42 1010.7
20260505225538 24 293 0.0 1.6 0.00 0.00 0.00 41 1010.8
20260505225034 24 299 0.0 0.0 0.00 0.00 0.00 43 1010.5
20260505224531 24 303 0.0 0.0 0.00 0.00 0.00 43 1010.3
20260505224028 24 286 1.6 1.6 0.00 0.00 0.00 42 1010.3
20260505223525 24 274 0.0 0.0 0.00 0.00 0.00 42 1010.5
20260505223021 24 294 0.0 0.0 0.00 0.00 0.00 42 1010.3
20260505222518 25 293 0.0 0.0 0.00 0.00 0.00 42 1010.5
20260505222014 25 286 0.0 0.0 0.00 0.00 0.00 41 1010.6
20260505221511 24 290 0.0 1.6 0.00 0.00 0.00 41 1010.0
20260505221008 24 212 4.8 4.8 0.00 0.00 0.00 41 1010.1
20260505220505 25 244 6.4 9.7 0.00 0.00 0.00 40 1010.2
20260505220002 25 303 1.6 3.2 0.00 0.00 0.00 40 1010.5
20260505215501 25 285 1.6 3.2 0.00 0.00 0.00 40 1010.3
20260505214958 25 282 0.0 0.0 0.00 0.00 0.00 41 1010.6
20260505214456 25 306 1.6 3.2 0.00 0.00 0.00 39 1010.3
20260505213953 25 292 0.0 4.8 0.00 0.00 0.00 39 1010.9
20260505213451 25 255 3.2 3.2 0.00 0.00 0.00 39 1010.7
20260505212946 25 297 1.6 8.0 0.00 0.00 0.00 37 1010.6
20260505212443 25 324 4.8 9.7 0.00 0.00 0.00 37 1010.7
20260505211939 25 241 3.2 3.2 0.00 0.00 0.00 39 1010.7
20260505211437 25 302 0.0 4.8 0.00 0.00 0.00 39 1010.2
20260505210933 25 282 0.0 3.2 0.00 0.00 0.00 38 1010.3
20260505210431 25 298 1.6 4.8 0.00 0.00 0.00 40 1010.7
20260505205927 25 179 3.2 4.8 0.00 0.00 0.00 40 1010.8
20260505205426 25 231 1.6 4.8 0.00 0.00 0.00 40 1010.8
20260505204922 25 307 0.0 3.2 0.00 0.00 0.00 41 1010.9
20260505204420 25 293 0.0 1.6 0.00 0.00 0.00 41 1010.7
20260505203917 25 321 0.0 4.8 0.00 0.00 0.00 41 1010.8
20260505203413 25 308 1.6 3.2 0.00 0.00 0.00 38 1010.9
20260505202910 25 281 1.6 4.8 0.00 0.00 0.00 38 1010.8
20260505202406 25 303 1.6 4.8 0.00 0.00 0.00 39 1010.9
20260505201903 25 297 0.0 9.7 0.00 0.00 0.00 39 1011.1
20260505201400 25 231 4.8 8.0 0.00 0.00 0.00 38 1011.3
20260505200858 25 301 1.6 4.8 0.00 0.00 0.00 38 1011.4
20260505200355 25 294 0.0 9.7 0.00 0.00 0.00 40 1011.1
20260505195850 25 231 4.8 8.0 0.00 0.00 0.00 39 1011.5
20260505195348 25 233 3.2 9.7 0.00 0.00 0.00 38 1011.5
20260505194845 25 230 1.6 3.2 0.00 0.00 0.00 41 1011.7
20260505194343 25 251 0.0 3.2 0.00 0.00 0.00 41 1011.8
20260505193838 24 286 0.0 3.2 0.00 0.00 0.00 41 1011.8
20260505193336 25 295 0.0 4.8 0.00 0.00 0.00 40 1011.8
20260505192833 25 295 0.0 1.6 0.00 0.00 0.00 40 1011.5
20260505192331 25 308 0.0 8.0 0.00 0.00 0.00 38 1011.8
20260505191829 25 270 0.0 11.3 0.00 0.00 0.00 40 1011.7
20260505191327 25 287 1.6 1.6 0.00 0.00 0.00 39 1011.9
20260505190823 25 295 1.6 1.6 0.00 0.00 0.00 39 1011.7
20260505190319 25 293 1.6 3.2 0.00 0.00 0.00 39 1011.9
20260505185815 26 220 4.8 8.0 0.00 0.00 0.00 37 1011.7
20260505185312 26 269 3.2 9.7 0.00 0.00 0.00 37 1011.8
20260505184807 25 275 0.0 3.2 0.00 0.00 0.00 38 1012.1
20260505184305 25 23 1.6 4.8 0.00 0.00 0.00 40 1012.2
20260505183802 25 244 1.6 4.8 0.00 0.00 0.00 39 1012.3
20260505183259 26 295 1.6 4.8 0.00 0.00 0.00 38 1012.1
20260505182755 26 291 0.0 0.0 0.00 0.00 0.00 39 1012.3
20260505182252 26 298 0.0 3.2 0.00 0.00 0.00 39 1012.4
20260505181749 26 188 3.2 4.8 0.00 0.00 0.00 38 1012.3
20260505181246 26 302 0.0 8.0 0.00 0.00 0.00 39 1012.3
20260505180742 26 304 3.2 8.0 0.00 0.00 0.00 38 1012.6
20260505180239 25 244 1.6 4.8 0.00 0.00 0.00 39 1012.5
20260505175735 25 300 0.0 4.8 0.00 0.00 0.00 41 1013.0
20260505175232 25 288 1.6 11.3 0.00 0.00 0.00 42 1012.7
20260505174729 25 315 0.0 8.0 0.00 0.00 0.00 41 1012.7
20260505174226 25 280 4.8 4.8 0.00 0.00 0.00 42 1013.0
20260505173722 25 285 1.6 9.7 0.00 0.00 0.00 43 1013.1
20260505173219 25 253 1.6 1.6 0.00 0.00 0.00 42 1012.9
20260505172716 26 162 6.4 9.7 0.00 0.00 0.00 40 1013.1
20260505172213 26 304 0.0 3.2 0.00 0.00 0.00 42 1012.9
20260505171712 26 310 3.2 3.2 0.00 0.00 0.00 39 1013.1
20260505171210 26 303 0.0 3.2 0.00 0.00 0.00 40 1013.1
20260505170706 26 306 0.0 1.6 0.00 0.00 0.00 40 1013.0
20260505170203 25 298 0.0 3.2 0.00 0.00 0.00 40 1013.1
20260505165658 25 289 0.0 8.0 0.00 0.00 0.00 41 1012.9
20260505165154 26 302 1.6 3.2 0.00 0.00 0.00 40 1012.9
20260505164650 25 294 0.0 9.7 0.00 0.00 0.00 41 1012.9
20260505164147 25 238 6.4 8.0 0.00 0.00 0.00 40 1012.8
20260505163645 25 302 1.6 8.0 0.00 0.00 0.00 41 1013.1
20260505163143 25 270 4.8 8.0 0.00 0.00 0.00 41 1012.9
20260505162640 25 302 1.6 4.8 0.00 0.00 0.00 45 1013.2
20260505162138 25 267 4.8 9.7 0.00 0.00 0.00 42 1013.0
20260505161635 25 270 1.6 3.2 0.00 0.00 0.00 43 1013.2
20260505161132 25 259 1.6 12.9 0.00 0.00 0.00 43 1013.3
20260505160630 25 244 3.2 3.2 0.00 0.00 0.00 44 1013.4
20260505160127 24 300 1.6 3.2 0.00 0.00 0.00 43 1013.3
20260505153107 23 295 3.2 3.2 0.00 0.00 0.00 46 1013.3
20260505152603 23 302 0.0 0.0 0.00 0.00 0.00 48 1013.4
20260505152059 22 298 0.0 3.2 0.00 0.00 0.00 48 1013.2
20260505151554 22 301 0.0 1.6 0.00 0.00 0.00 51 1013.2
20260505151052 21 299 0.0 1.6 0.00 0.00 0.00 51 1013.4
20260505150548 21 303 0.0 3.2 0.00 0.00 0.00 56 1013.7
20260505140514 18 306 0.0 0.0 0.00 0.00 0.00 66 1013.5
20260505124926 14 299 0.0 0.0 0.00 0.00 0.00 75 1012.7
20260505124424 13 301 0.0 0.0 0.00 0.00 0.00 76 1013.1
20260505123919 13 301 0.0 0.0 0.00 0.00 0.00 76 1012.8
20260505123416 13 301 0.0 0.0 0.00 0.00 0.00 77 1012.8
20260505122912 13 298 0.0 0.0 0.00 0.00 0.00 77 1012.8
20260505122410 13 297 0.0 0.0 0.00 0.00 0.00 76 1012.9
20260505121906 12 293 0.0 0.0 0.00 0.00 0.00 77 1012.9
20260505121403 12 297 0.0 0.0 0.00 0.00 0.00 80 1012.8
20260505120859 12 297 0.0 0.0 0.00 0.00 0.00 80 1012.8
20260505120356 12 296 0.0 0.0 0.00 0.00 0.00 82 1013.0
20260505115854 11 296 0.0 0.0 0.00 0.00 0.00 82 1012.8
20260505115352 11 296 0.0 0.0 0.00 0.00 0.00 84 1012.8
20260505114849 11 296 0.0 0.0 0.00 0.00 0.00 86 1012.5
20260505114346 11 300 0.0 0.0 0.00 0.00 0.00 88 1012.5
20260505113842 10 300 0.0 0.0 0.00 0.00 0.00 87 1012.5
20260505113339 10 299 0.0 0.0 0.00 0.00 0.00 88 1012.5
20260505112834 10 300 0.0 0.0 0.00 0.00 0.00 88 1012.2
20260505112332 10 299 0.0 0.0 0.00 0.00 0.00 87 1012.0
20260505111827 10 299 0.0 0.0 0.00 0.00 0.00 87 1012.1
20260505111323 10 299 0.0 0.0 0.00 0.00 0.00 88 1012.1
20260505110819 10 299 0.0 0.0 0.00 0.00 0.00 87 1012.0
20260505110317 10 300 0.0 0.0 0.00 0.00 0.00 86 1012.3
20260505101751 10 303 0.0 0.0 0.00 0.00 0.00 87 1011.8
20260505101247 10 303 0.0 0.0 0.00 0.00 0.00 86 1011.7
20260505100743 10 303 0.0 0.0 0.00 0.00 0.00 86 1012.0
20260505100240 10 303 0.0 0.0 0.00 0.00 0.00 86 1012.0
20260505095736 10 303 0.0 0.0 0.00 0.00 0.00 86 1012.0
20260505095234 10 303 0.0 0.0 0.00 0.00 0.00 86 1012.0
20260505094729 11 303 0.0 0.0 0.00 0.00 0.00 86 1012.1
20260505094226 11 303 0.0 0.0 0.00 0.00 0.00 86 1012.2
20260505093722 11 303 0.0 0.0 0.00 0.00 0.00 86 1011.8
20260505093220 11 303 0.0 0.0 0.00 0.00 0.00 86 1011.7
20260505092716 11 303 0.0 0.0 0.00 0.00 0.00 86 1011.7
20260505092215 11 303 0.0 0.0 0.00 0.00 0.00 86 1011.8
20260505091712 11 303 0.0 0.0 0.00 0.00 0.00 86 1011.6
20260505091210 11 303 0.0 0.0 0.00 0.00 0.00 86 1012.0
20260505090707 11 303 0.0 0.0 0.00 0.00 0.00 85 1011.9
20260505090205 11 303 0.0 0.0 0.00 0.00 0.00 85 1012.1
20260505085703 11 303 0.0 0.0 0.00 0.00 0.00 85 1012.3
20260505085201 11 303 0.0 0.0 0.00 0.00 0.00 84 1012.1
20260505084658 11 303 0.0 0.0 0.00 0.00 0.00 83 1011.9
20260505084156 11 303 0.0 0.0 0.00 0.00 0.00 83 1012.0
20260505083653 11 303 0.0 0.0 0.00 0.00 0.00 85 1012.1
20260505083150 11 303 0.0 0.0 0.00 0.00 0.00 84 1011.9
20260505082646 11 303 0.0 0.0 0.00 0.00 0.00 83 1012.4
20260505082143 11 303 0.0 0.0 0.00 0.00 0.00 84 1012.1
20260505081639 11 303 0.0 0.0 0.00 0.00 0.00 84 1012.2
20260505081137 11 303 0.0 0.0 0.00 0.00 0.00 84 1012.0
20260505080633 11 303 0.0 0.0 0.00 0.00 0.00 83 1012.3
20260505080129 11 303 0.0 0.0 0.00 0.00 0.00 83 1012.2
20260505075625 11 303 0.0 0.0 0.00 0.00 0.00 83 1012.2
20260505075122 11 303 0.0 0.0 0.00 0.00 0.00 83 1012.0
20260505074619 11 303 0.0 0.0 0.00 0.00 0.00 83 1012.1
20260505074116 11 303 0.0 0.0 0.00 0.00 0.00 82 1011.9
20260505073614 11 303 0.0 0.0 0.00 0.00 0.00 81 1012.1
20260505073112 12 303 0.0 0.0 0.00 0.00 0.00 82 1012.0
20260505072607 12 303 0.0 0.0 0.00 0.00 0.00 82 1012.0
20260505072104 12 303 0.0 0.0 0.00 0.00 0.00 81 1011.9
20260505071559 12 302 0.0 0.0 0.00 0.00 0.00 81 1012.2
20260505071058 12 303 0.0 0.0 0.00 0.00 0.00 81 1012.1
20260505070555 12 302 0.0 0.0 0.00 0.00 0.00 81 1012.2
20260505070050 12 303 0.0 0.0 0.00 0.00 0.00 80 1012.1
20260505065546 12 302 0.0 0.0 0.00 0.00 0.00 80 1011.8
20260505065044 12 302 0.0 0.0 0.00 0.00 0.00 79 1012.1
20260505064540 12 302 0.0 0.0 0.00 0.00 0.00 79 1012.0
20260505064039 12 302 0.0 0.0 0.00 0.00 0.00 79 1012.1
20260505063536 12 302 0.0 0.0 0.00 0.00 0.00 79 1012.1
20260505063031 12 302 0.0 0.0 0.00 0.00 0.00 79 1012.1
20260505062528 12 302 0.0 0.0 0.00 0.00 0.00 78 1012.3
20260505062026 12 302 0.0 0.0 0.00 0.00 0.00 78 1012.3
20260505061523 12 302 0.0 0.0 0.00 0.00 0.00 79 1012.3
20260505061021 12 302 0.0 0.0 0.00 0.00 0.00 78 1012.3
20260505060518 12 302 0.0 0.0 0.00 0.00 0.00 78 1012.4
20260505060015 13 302 0.0 0.0 0.00 0.00 0.00 77 1012.3
20260505055510 13 302 0.0 0.0 0.00 0.00 0.00 77 1012.4
20260505055007 13 302 0.0 0.0 0.00 0.00 0.00 77 1012.3
20260505054504 13 302 0.0 0.0 0.00 0.00 0.00 77 1012.3
20260505054002 13 302 0.0 0.0 0.00 0.00 0.00 77 1012.4
20260505053459 13 302 0.0 0.0 0.00 0.00 0.00 76 1012.1
20260505052955 13 301 0.0 0.0 0.00 0.00 0.00 75 1012.2
20260505052453 13 301 0.0 0.0 0.00 0.00 0.00 75 1012.4
20260505051950 13 301 0.0 0.0 0.00 0.00 0.00 75 1012.4
20260505051447 13 301 0.0 0.0 0.00 0.00 0.00 74 1012.2
20260505050945 13 301 0.0 0.0 0.00 0.00 0.00 74 1012.4
20260505050443 13 301 0.0 0.0 0.00 0.00 0.00 74 1012.2
20260505041411 15 301 0.0 0.0 0.00 0.00 0.00 70 1012.3
20260505040908 15 301 0.0 0.0 0.00 0.00 0.00 70 1012.3
20260505040405 15 301 0.0 0.0 0.00 0.00 0.00 69 1012.3
20260505035902 15 301 0.0 0.0 0.00 0.00 0.00 70 1012.3
20260505035357 15 301 0.0 0.0 0.00 0.00 0.00 70 1012.2
20260505034855 15 301 0.0 0.0 0.00 0.00 0.00 69 1012.5
20260505034351 15 301 0.0 0.0 0.00 0.00 0.00 69 1012.4
20260505033849 15 301 0.0 0.0 0.00 0.00 0.00 69 1012.6
20260505033345 15 301 0.0 0.0 0.00 0.00 0.00 68 1012.3
20260505032844 15 301 0.0 0.0 0.00 0.00 0.00 69 1012.7
20260505032340 15 301 0.0 0.0 0.00 0.00 0.00 68 1012.5
20260505031837 15 301 0.0 0.0 0.00 0.00 0.00 67 1012.6
20260505031333 16 301 0.0 0.0 0.00 0.00 0.00 67 1012.6
20260505030831 16 301 0.0 0.0 0.00 0.00 0.00 67 1012.3
20260505030327 16 301 0.0 0.0 0.00 0.00 0.00 66 1012.4
20260505025822 16 301 0.0 0.0 0.00 0.00 0.00 65 1012.4
20260505025320 16 301 0.0 0.0 0.00 0.00 0.00 64 1012.5
20260505024819 16 301 0.0 0.0 0.00 0.00 0.00 63 1012.3
20260505024316 16 301 0.0 0.0 0.00 0.00 0.00 63 1012.4
20260505023813 16 301 0.0 0.0 0.00 0.00 0.00 62 1012.6
20260505023310 16 301 0.0 0.0 0.00 0.00 0.00 61 1012.3
20260505022807 16 301 0.0 0.0 0.00 0.00 0.00 61 1012.2
20260505022304 17 301 0.0 0.0 0.00 0.00 0.00 60 1012.3
20260505021801 17 300 0.0 0.0 0.00 0.00 0.00 59 1012.5
20260505021258 17 299 0.0 0.0 0.00 0.00 0.00 59 1012.3
20260505020753 17 299 0.0 0.0 0.00 0.00 0.00 59 1012.1
20260505020248 17 299 0.0 0.0 0.00 0.00 0.00 58 1012.1
20260505015746 17 299 0.0 0.0 0.00 0.00 0.00 58 1012.1
20260505015243 17 299 0.0 0.0 0.00 0.00 0.00 58 1012.2
20260505014740 18 299 0.0 0.0 0.00 0.00 0.00 57 1012.0
20260505014238 18 299 0.0 0.0 0.00 0.00 0.00 55 1012.0
20260505013734 18 299 0.0 0.0 0.00 0.00 0.00 55 1012.0
20260505013231 18 299 0.0 0.0 0.00 0.00 0.00 54 1011.8
20260505012729 18 299 0.0 0.0 0.00 0.00 0.00 54 1011.9
20260505012226 18 299 0.0 0.0 0.00 0.00 0.00 53 1011.9
20260505011722 19 299 0.0 0.0 0.00 0.00 0.00 52 1012.0
20260505011220 19 299 0.0 0.0 0.00 0.00 0.00 51 1011.8
20260505010715 20 299 0.0 0.0 0.00 0.00 0.00 52 1011.8
20260505010212 20 297 0.0 0.0 0.00 0.00 0.00 48 1011.6
20260505005708 20 297 0.0 0.0 0.00 0.00 0.00 48 1011.5
20260505005205 20 297 0.0 0.0 0.00 0.00 0.00 46 1011.6
20260505004702 20 297 0.0 0.0 0.00 0.00 0.00 46 1011.5
20260505004159 20 297 0.0 0.0 0.00 0.00 0.00 47 1011.4
20260505003656 21 297 0.0 0.0 0.00 0.00 0.00 44 1011.6
20260505003153 21 296 0.0 0.0 0.00 0.00 0.00 44 1011.3
20260505002649 21 296 0.0 0.0 0.00 0.00 0.00 44 1011.4